Regional Weather Roundup
Issued by NWS Cleveland, OH

Home | Current Version | Previous Version | Graphics & Text | Print | Product List | Glossary On
Versions: 1 2 3 4 5 6 7 8 9 10 11 12 13 14 15 16 17 18 19 20 21 22 23 24 25 26 27 28 29 30 31 32 33 34 35 36 37 38 39 40 41 42 43 44 45 46 47 48 49 50
000
ASUS41 KCLE 300510
RWRCLE
OHIO REGIONAL WEATHER ROUNDUP
NATIONAL WEATHER SERVICE WILMINGTON, OH
100 AM EDT TUE AUG 30 2016

NOTE: "FAIR" INDICATES FEW OR NO CLOUDS BELOW 12,000 FEET WITH NO
SIGNIFICANT WEATHER AND/OR OBSTRUCTIONS TO VISIBILITY.

OHZ001>008-015>018-024>027-034-035-043-044-300600-
   NORTHWEST OHIO

CITY           SKY/WX    TMP DP  RH WIND       PRES   REMARKS
DEFIANCE       FAIR      69  63  81 CALM      30.21R
FINDLAY        FAIR      68  61  78 E3        30.19F
TOLEDO EXPRESS FAIR      64  64 100 CALM      30.20S
TOLEDO EXEC    FAIR      67  65  93 CALM      30.21S
LIMA           FAIR      66  63  90 E5        30.21S
$$

OHZ009>014-019>023-028>033-038-089-300600-
   NORTHEAST OHIO

CITY           SKY/WX    TMP DP  RH WIND       PRES   REMARKS
CLE-HOPKINS    FAIR      66  57  72 SE5       30.22F
CLE-LAKEFRONT  FAIR      71  57  61 SE6       30.19F
CUY CO. ARPT   NOT AVBL
LORAIN-ELYRIA  FAIR      61  58  90 CALM      30.21F
ASHTABULA      FAIR      57  57 100 CALM      30.22F
AKRON-CANTON   FAIR      66  57  72 E7        30.21F
WOOSTER        FAIR      61  58  90 CALM      30.22F
MANSFIELD      FAIR      66  57  72 CALM      30.22F
YOUNGSTOWN     FAIR      61  56  83 E7        30.22S
$$

OHZ042-051>053-060>062-070>072-077>081-300600-
  SOUTHWEST OHIO

CITY           SKY/WX    TMP DP  RH WIND       PRES   REMARKS
CINC-COVINGTON FAIR      77  71  82 E6        30.17S
CINC-LUNKEN    FAIR      71  71 100 CALM      30.16F FOG
HAMILTON       FAIR      70  68  93 CALM      30.17F
DAYTON         FAIR      70  66  87 NE7       30.20F
WRIGHT-PAT AFB FAIR      73  69  87 N3        30.18S
DAYTON GENERAL FAIR      72  66  81 NE6       30.18S
WILMINGTON     FAIR      68  66  93 NE8       30.18F
$$

OHZ036-037-039>041-045>050-054>059-063>069-073>076-082>088-300600-
  CENTRAL AND SOUTHEAST OHIO

CITY           SKY/WX    TMP DP  RH WIND       PRES   REMARKS
COLUMBUS       FAIR      71  61  70 NE7       30.18S
OSU AIRPORT    FAIR      69  64  84 NE5       30.19S
BOLTON FIELD   FAIR      69  65  87 NE3       30.19F
RICKENBACK AFB FAIR      69  65  88 NE6       30.18S
NEWARK         FAIR      69  63  81 CALM      30.19S
MARION         FAIR      65  61  87 CALM      30.21F
LANCASTER      FAIR      67  66  97 CALM      30.19R
ZANESVILLE     FAIR      65  63  93 N3        30.20R
NEW PHILLY     FAIR      65  60  84 CALM      30.21F
$$




USA.gov is the U.S. government's official web portal to all federal, state and local government web resources and services.